Temp
-11 -11 -10 -10 -10 -9 -8 -8 -8 -8 -8 -8 -8 -8 -8 -8 -8 -8 -8 -7 -7 -7 -7 -6 -7 -6 -6 -6 -6 -6 -6 -6 -6 -5 -6 -5 -6 -5 -4 -3 -2 -2 -1 -0 -0 -0 0 2 4 4 5 5 5 5
-11 -11 -11 -11 -10 -9 -8 -8 -8 -8 -8 -8 -8 -8 -8 -9 -9 -8 -8 -7 -7 -7 -7 -7 -7 -7 -7 -7 -7 -7 -7 -6 -6 -6 -6 -7 -7 -6 -5 -5 -4 -3 -2 -1 -1 1 1 2 3 3 4 4 4 4
-11 -11 -11 -11 -11 -10 -9 -8 -8 -8 -8 -8 -8 -9 -9 -9 -8 -8 -8 -8 -8 -7 -8 -7 -8 -8 -8 -8 -8 -7 -8 -8 -8 -8 -8 -8 -8 -7 -7 -6 -5 -4 -3 -3 -2 -1 -0 1 1 2 3 3 4 4
-12 -11 -11 -11 -11 -10 -9 -8 -8 -8 -8 -8 -8 -9 -9 -9 -8 -8 -8 -8 -8 -8 -8 -8 -8 -8 -8 -9 -9 -9 -9 -9 -9 -8 -9 -9 -8 -8 -7 -7 -7 -5 -4 -3 -3 -2 -1 -1 0 1 2 3 3 3
-12 -12 -11 -11 -11 -10 -9 -8 -8 -8 -8 -8 -9 -9 -9 -9 -9 -8 -8 -8 -8 -8 -8 -8 -9 -9 -9 -9 -9 -9 -9 -9 -9 -9 -9 -9 -9 -8 -8 -8 -6 -5 -4 -4 -4 -4 -3 -1 -1 -0 2 2 2 2
-12 -12 -11 -11 -11 -11 -9 -8 -8 -8 -9 -9 -9 -9 -9 -9 -9 -8 -9 -8 -9 -8 -8 -8 -8 -8 -9 -9 -9 -9 -10 -10 -10 -10 -10 -9 -9 -10 -9 -8 -5 -5 -5 -5 -5 -5 -4 -3 -2 -1 0 0 1 2
-12 -12 -12 -11 -11 -10 -9 -9 -8 -8 -9 -9 -9 -10 -9 -9 -9 -9 -9 -8 -9 -9 -8 -8 -8 -9 -9 -9 -9 -9 -10 -10 -10 -11 -10 -10 -10 -10 -10 -9 -5 -5 -5 -5 -5 -5 -5 -4 -3 -3 -3 -0 -1 1
-12 -12 -12 -11 -11 -10 -10 -9 -9 -9 -9 -10 -10 -10 -10 -10 -10 -10 -9 -9 -9 -9 -9 -8 -9 -9 -10 -10 -10 -10 -10 -10 -11 -11 -11 -11 -11 -11 -10 -7 -7 -6 -6 -5 -5 -6 -5 -5 -5 -4 -4 -2 -2 0
-12 -12 -11 -10 -10 -11 -10 -10 -9 -9 -9 -11 -11 -10 -10 -10 -10 -9 -10 -10 -9 -10 -10 -9 -9 -10 -10 -11 -11 -11 -11 -11 -11 -11 -10 -11 -11 -11 -9 -8 -7 -7 -7 -6 -6 -5 -4 -5 -4 -5 -5 -4 -2 0
-12 -12 -11 -11 -11 -10 -9 -8 -10 -10 -10 -10 -11 -11 -11 -10 -10 -10 -10 -10 -10 -10 -10 -9 -9 -10 -11 -11 -12 -12 -11 -11 -11 -10 -11 -11 -9 -8 -8 -7 -7 -7 -8 -7 -6 -4 -4 -4 -4 -5 -5 -3 -4 -2
-12 -12 -12 -11 -11 -10 -10 -10 -10 -10 -10 -11 -11 -11 -10 -10 -11 -11 -11 -11 -10 -10 -10 -10 -10 -10 -11 -12 -12 -12 -12 -11 -11 -10 -10 -10 -9 -9 -9 -8 -8 -8 -7 -6 -5 -4 -4 -4 -4 -4 -4 -4 -4 -3
-12 -12 -11 -11 -11 -10 -10 -10 -10 -9 -10 -10 -10 -10 -10 -11 -11 -11 -11 -11 -10 -10 -10 -11 -11 -11 -12 -12 -12 -13 -12 -11 -10 -10 -10 -10 -9 -9 -9 -9 -9 -8 -8 -7 -5 -4 -4 -4 -3 -3 -3 -4 -3 -3
-12 -11 -11 -11 -10 -10 -9 -10 -10 -10 -10 -11 -11 -11 -10 -11 -11 -11 -11 -9 -9 -10 -10 -11 -11 -12 -12 -12 -13 -13 -12 -11 -10 -10 -10 -9 -9 -9 -9 -9 -9 -8 -8 -7 -6 -5 -4 -3 -3 -2 -3 -3 -3 -2
-11 -11 -9 -9 -10 -10 -10 -10 -10 -11 -11 -12 -11 -11 -10 -10 -10 -10 -9 -9 -9 -10 -11 -11 -12 -12 -13 -13 -13 -13 -12 -11 -10 -10 -10 -10 -9 -9 -9 -9 -9 -9 -8 -7 -7 -7 -6 -5 -4 -3 -3 -3 -2 -2
-11 -10 -10 -10 -10 -10 -10 -10 -10 -11 -12 -11 -11 -10 -10 -10 -9 -9 -9 -10 -10 -11 -11 -12 -12 -13 -13 -13 -13 -12 -11 -11 -10 -10 -10 -10 -10 -9 -9 -9 -10 -9 -9 -8 -7 -7 -7 -6 -5 -4 -3 -3 -2 -2
-11 -10 -10 -10 -10 -10 -10 -11 -11 -12 -12 -11 -11 -10 -10 -10 -9 -9 -10 -10 -11 -12 -12 -12 -12 -13 -13 -12 -12 -12 -11 -10 -11 -10 -10 -10 -10 -10 -10 -10 -10 -10 -9 -9 -9 -7 -7 -5 -5 -5 -4 -3 -2 -3
-10 -10 -10 -10 -10 -10 -10 -11 -12 -12 -12 -11 -10 -10 -10 -10 -10 -10 -10 -10 -11 -11 -11 -12 -12 -11 -12 -12 -12 -11 -11 -10 -10 -11 -10 -10 -10 -10 -9 -9 -8 -8 -9 -8 -8 -7 -6 -5 -5 -4 -4 -3 -3 -3
-11 -11 -11 -11 -10 -10 -11 -11 -12 -12 -11 -10 -10 -10 -10 -10 -10 -10 -10 -10 -11 -11 -12 -12 -12 -12 -11 -11 -10 -11 -11 -11 -11 -11 -10 -10 -10 -9 -9 -9 -8 -8 -8 -8 -7 -7 -6 -5 -4 -4 -4 -3 -3 -2
-10 -11 -11 -11 -11 -11 -12 -12 -12 -11 -11 -10 -10 -10 -10 -10 -10 -10 -10 -11 -12 -12 -12 -12 -12 -11 -11 -10 -10 -10 -10 -11 -11 -11 -10 -10 -10 -9 -9 -9 -8 -8 -8 -8 -7 -7 -7 -6 -5 -4 -3 -3 -2 -2
-11 -11 -11 -11 -11 -11 -12 -12 -12 -11 -11 -10 -10 -10 -10 -10 -10 -10 -11 -12 -13 -13 -12 -12 -11 -10 -10 -10 -11 -11 -11 -11 -11 -11 -10 -10 -9 -9 -9 -9 -8 -8 -7 -7 -7 -7 -7 -7 -6 -5 -4 -3 -3 -2
-12 -11 -11 -11 -11 -12 -12 -12 -12 -12 -12 -11 -10 -10 -10 -10 -10 -10 -11 -12 -12 -12 -11 -10 -10 -10 -11 -11 -11 -11 -11 -11 -11 -10 -10 -10 -9 -9 -9 -8 -8 -8 -8 -7 -7 -7 -6 -6 -6 -6 -5 -4 -4 -3
-12 -12 -12 -12 -12 -12 -12 -12 -12 -12 -12 -11 -11 -10 -10 -10 -10 -11 -11 -11 -11 -10 -10 -11 -11 -11 -11 -11 -11 -11 -11 -11 -11 -11 -10 -10 -10 -9 -9 -8 -8 -8 -8 -7 -7 -7 -7 -6 -6 -5 -5 -4 -4 -4
-12 -13 -12 -13 -13 -13 -13 -12 -12 -12 -12 -11 -11 -11 -11 -10 -10 -11 -11 -10 -10 -11 -11 -11 -11 -12 -12 -11 -11 -11 -11 -11 -11 -11 -10 -10 -10 -9 -9 -8 -8 -8 -7 -6 -7 -7 -7 -6 -6 -6 -5 -5 -4 -4
-12 -13 -14 -13 -13 -13 -13 -13 -13 -12 -12 -12 -11 -11 -11 -11 -11 -11 -10 -10 -10 -11 -11 -12 -12 -12 -13 -12 -11 -11 -11 -12 -11 -11 -11 -11 -10 -9 -8 -8 -8 -8 -8 -8 -7 -7 -7 -7 -6 -6 -6 -5 -5 -5
-13 -14 -13 -14 -13 -13 -13 -13 -12 -13 -12 -12 -11 -11 -11 -11 -12 -12 -11 -10 -11 -11 -11 -11 -11 -12 -12 -12 -11 -11 -11 -11 -11 -11 -11 -11 -10 -9 -9 -8 -8 -9 -9 -8 -8 -8 -7 -8 -7 -7 -6 -5 -5 -5
-13 -14 -13 -13 -13 -13 -13 -12 -12 -12 -12 -11 -11 -11 -12 -12 -13 -12 -11 -11 -11 -12 -12 -11 -11 -12 -12 -12 -12 -11 -11 -12 -12 -11 -11 -11 -11 -10 -9 -9 -9 -9 -9 -9 -9 -9 -9 -8 -8 -8 -8 -7 -7 -6
-14 -14 -13 -13 -13 -12 -12 -12 -12 -12 -11 -11 -11 -12 -12 -13 -12 -11 -11 -11 -11 -11 -12 -12 -12 -11 -11 -11 -11 -11 -11 -11 -11 -10 -10 -10 -10 -9 -9 -9 -9 -9 -9 -9 -8 -8 -8 -8 -9 -9 -9 -9 -9 -8
-13 -13 -12 -12 -12 -12 -12 -12 -12 -12 -12 -12 -12 -12 -12 -12 -11 -11 -12 -12 -12 -12 -12 -11 -11 -11 -10 -10 -10 -10 -10 -10 -10 -9 -9 -9 -9 -9 -9 -9 -9 -9 -9 -8 -8 -9 -9 -10 -10 -10 -10 -10 -10 -9
-13 -12 -12 -12 -12 -12 -12 -12 -12 -11 -12 -12 -12 -11 -11 -11 -11 -12 -12 -12 -12 -12 -11 -10 -10 -10 -10 -9 -9 -9 -9 -9 -9 -9 -9 -8 -8 -8 -8 -8 -9 -8 -8 -8 -9 -10 -11 -11 -11 -11 -11 -10 -10 -10
-13 -13 -12 -12 -12 -12 -12 -12 -12 -12 -12 -12 -12 -12 -12 -11 -11 -12 -12 -12 -11 -11 -11 -10 -9 -9 -9 -9 -8 -8 -9 -9 -9 -9 -8 -8 -8 -8 -8 -8 -8 -8 -9 -10 -10 -11 -11 -12 -12 -11 -11 -10 -10 -10
-13 -13 -13 -12 -12 -12 -12 -12 -12 -12 -12 -12 -12 -12 -12 -11 -11 -11 -11 -11 -10 -10 -9 -9 -8 -8 -8 -8 -8 -8 -8 -9 -8 -8 -8 -8 -8 -8 -7 -7 -8 -9 -10 -10 -11 -11 -12 -12 -12 -11 -11 -11 -10 -10
-13 -13 -13 -13 -12 -12 -12 -12 -12 -12 -12 -12 -12 -12 -12 -11 -10 -9 -10 -10 -9 -9 -8 -8 -8 -8 -8 -8 -8 -8 -8 -8 -7 -7 -7 -7 -7 -7 -8 -8 -9 -9 -9 -10 -10 -11 -11 -12 -11 -11 -11 -11 -11 -11
-13 -13 -13 -13 -12 -12 -12 -13 -12 -12 -12 -11 -11 -11 -10 -10 -10 -10 -10 -10 -10 -9 -9 -9 -9 -9 -9 -8 -8 -8 -7 -7 -7 -7 -6 -7 -7 -7 -8 -9 -9 -9 -9 -9 -10 -10 -11 -11 -11 -11 -11 -11 -11 -12
Height
2908 2911 2916 2921 2927 2936 2944 2950 2959 2968 2977 2984 2992 2999 3004 3009 3014 3019 3023 3027 3031 3033 3037 3040 3044 3047 3048 3051 3054 3059 3062 3061 3065 3067 3069 3070 3070 3072 3072 3073 3075 3078 3079 3078 3079 3081 3079 3083 3085 3086 3087 3086 3088 3086
2904 2907 2911 2917 2923 2930 2939 2945 2953 2963 2972 2980 2988 2995 3001 3006 3011 3016 3021 3024 3027 3031 3035 3037 3039 3042 3044 3047 3051 3052 3055 3057 3058 3060 3062 3064 3065 3066 3066 3067 3070 3073 3074 3074 3074 3071 3075 3077 3079 3079 3079 3080 3082 3082
2901 2904 2907 2912 2919 2926 2933 2942 2949 2959 2968 2977 2984 2991 2998 3004 3008 3014 3018 3022 3025 3028 3032 3035 3037 3038 3040 3042 3045 3048 3050 3051 3053 3055 3057 3059 3061 3061 3062 3061 3063 3064 3065 3064 3065 3065 3065 3068 3068 3070 3072 3074 3076 3076
2897 2900 2904 2908 2914 2921 2930 2938 2946 2953 2964 2973 2981 2988 2995 3001 3006 3011 3016 3019 3023 3026 3029 3032 3033 3035 3036 3037 3039 3042 3044 3046 3048 3049 3051 3052 3054 3053 3054 3054 3054 3057 3057 3057 3054 3056 3059 3059 3059 3060 3064 3066 3069 3070
2894 2896 2900 2904 2910 2918 2927 2935 2942 2951 2961 2970 2978 2986 2992 2998 3004 3009 3014 3017 3021 3026 3028 3030 3031 3031 3032 3033 3034 3036 3039 3041 3042 3044 3044 3045 3046 3048 3046 3045 3042 3048 3050 3050 3047 3049 3049 3053 3052 3052 3053 3057 3060 3062
2890 2893 2896 2902 2908 2915 2922 2931 2938 2947 2958 2967 2976 2983 2990 2997 3003 3007 3011 3015 3018 3022 3026 3027 3028 3026 3027 3028 3030 3031 3033 3034 3035 3036 3037 3037 3039 3042 3037 3030 3033 3040 3042 3043 3043 3042 3041 3042 3042 3043 3044 3046 3051 3054
2886 2890 2894 2899 2906 2913 2920 2928 2935 2944 2955 2965 2973 2981 2989 2995 3000 3006 3011 3014 3017 3020 3023 3024 3023 3023 3024 3024 3025 3026 3027 3028 3030 3030 3028 3031 3033 3034 3027 3018 3024 3029 3032 3034 3034 3034 3032 3034 3032 3036 3036 3037 3040 3044
2883 2887 2893 2898 2905 2911 2919 2927 2935 2944 2953 2962 2971 2980 2986 2991 2998 3004 3008 3012 3014 3017 3020 3022 3021 3021 3021 3021 3022 3022 3022 3023 3022 3022 3023 3023 3024 3025 3013 3009 3015 3019 3022 3023 3025 3025 3023 3026 3025 3024 3025 3028 3032 3036
2881 2886 2892 2895 2904 2912 2919 2927 2933 2944 2951 2959 2969 2977 2984 2991 2997 3002 3005 3008 3011 3017 3016 3018 3018 3019 3018 3018 3018 3019 3019 3018 3019 3015 3017 3019 3015 3009 3004 3006 3009 3012 3012 3012 3012 3013 3016 3019 3020 3019 3018 3019 3021 3025
2880 2885 2891 2897 2904 2910 2918 2923 2933 2941 2949 2959 2969 2977 2984 2990 2997 3000 3004 3007 3008 3009 3010 3012 3013 3014 3016 3015 3015 3018 3016 3016 3012 3011 3012 3008 3001 3000 3001 3002 3003 3001 3001 3001 3001 3003 3006 3008 3011 3012 3008 3012 3013 3016
2879 2884 2890 2896 2903 2910 2916 2924 2930 2940 2950 2958 2966 2976 2983 2990 2995 2999 3002 3004 3004 3005 3005 3007 3008 3008 3008 3010 3011 3013 3012 3011 3008 3008 3006 3000 2993 2993 2993 2993 2993 2991 2990 2989 2990 2992 2995 2997 3001 3002 3005 3005 3006 3006
2879 2884 2888 2894 2903 2909 2917 2924 2931 2939 2946 2956 2966 2976 2983 2990 2994 2997 2997 3000 3000 3001 3002 3003 3004 3004 3004 3004 3005 3007 3008 3008 3004 3002 3000 2994 2992 2989 2988 2986 2985 2983 2981 2979 2979 2981 2984 2987 2990 2993 2997 2998 3000 2999
2876 2880 2887 2893 2900 2908 2916 2925 2933 2943 2950 2960 2971 2977 2983 2988 2989 2989 2991 2993 2995 2997 2998 2999 3001 3002 3001 3002 3003 3004 3003 3001 3000 2997 2995 2993 2988 2985 2985 2984 2980 2977 2974 2972 2972 2973 2974 2978 2981 2986 2988 2991 2993 2996
2875 2877 2881 2890 2901 2909 2918 2925 2933 2943 2953 2962 2968 2973 2979 2979 2981 2983 2988 2990 2992 2993 2995 2996 2998 2999 2999 3000 3000 3000 2999 2997 2994 2991 2991 2989 2988 2986 2981 2980 2975 2972 2968 2967 2968 2969 2969 2972 2974 2978 2981 2983 2985 2989
2875 2880 2886 2893 2901 2910 2919 2928 2937 2946 2954 2961 2968 2970 2972 2975 2978 2981 2984 2987 2989 2990 2992 2993 2994 2995 2995 2997 2996 2995 2993 2989 2986 2987 2987 2986 2984 2982 2979 2975 2971 2966 2963 2962 2963 2964 2966 2967 2967 2969 2971 2975 2978 2980
2878 2883 2889 2896 2904 2913 2921 2929 2937 2946 2953 2959 2963 2965 2968 2972 2976 2979 2982 2983 2985 2987 2988 2990 2991 2991 2990 2991 2989 2988 2987 2984 2984 2984 2984 2984 2983 2980 2977 2974 2971 2969 2963 2964 2961 2961 2963 2963 2964 2967 2969 2970 2972 2973
2877 2881 2890 2899 2908 2915 2923 2930 2937 2944 2951 2954 2958 2963 2967 2970 2974 2977 2979 2981 2982 2985 2986 2987 2987 2987 2986 2984 2982 2981 2979 2981 2981 2980 2981 2981 2979 2978 2975 2973 2969 2966 2964 2962 2960 2959 2958 2959 2961 2964 2965 2966 2966 2968
2879 2885 2891 2899 2904 2913 2921 2929 2935 2942 2946 2950 2956 2961 2967 2969 2972 2974 2975 2977 2979 2980 2981 2982 2982 2981 2980 2978 2978 2978 2977 2977 2977 2977 2977 2976 2974 2972 2970 2967 2966 2962 2962 2960 2958 2956 2955 2955 2956 2957 2959 2959 2961 2962
2882 2887 2893 2902 2909 2916 2923 2930 2935 2939 2943 2950 2954 2960 2964 2967 2969 2970 2972 2973 2974 2976 2977 2976 2976 2972 2972 2973 2974 2973 2972 2971 2971 2970 2970 2970 2969 2967 2966 2964 2961 2960 2957 2955 2954 2953 2952 2950 2950 2950 2952 2954 2954 2955
2884 2890 2897 2904 2911 2917 2922 2928 2934 2940 2944 2948 2953 2957 2961 2964 2966 2966 2968 2968 2969 2970 2969 2966 2964 2966 2967 2969 2968 2968 2967 2966 2964 2963 2963 2964 2963 2961 2959 2958 2956 2953 2951 2950 2948 2947 2946 2945 2944 2944 2945 2945 2946 2947
2886 2890 2896 2903 2910 2918 2925 2929 2935 2940 2944 2947 2951 2954 2957 2960 2961 2962 2963 2963 2962 2959 2956 2956 2956 2959 2960 2961 2961 2961 2961 2960 2958 2956 2954 2953 2954 2953 2952 2950 2948 2947 2945 2943 2941 2941 2940 2940 2939 2937 2937 2938 2939 2939
2885 2892 2899 2907 2913 2918 2924 2927 2932 2937 2942 2945 2948 2951 2953 2955 2956 2957 2957 2955 2952 2952 2949 2947 2946 2947 2949 2950 2952 2953 2953 2952 2951 2950 2948 2945 2942 2941 2940 2940 2939 2937 2936 2936 2935 2933 2932 2931 2932 2933 2932 2931 2931 2931
2889 2897 2904 2909 2915 2919 2924 2928 2931 2935 2939 2942 2945 2947 2948 2950 2951 2951 2950 2947 2945 2944 2939 2935 2935 2937 2936 2937 2938 2941 2943 2943 2942 2940 2938 2935 2933 2930 2928 2927 2927 2925 2924 2926 2924 2922 2922 2922 2922 2923 2924 2924 2923 2923
2893 2899 2904 2909 2914 2918 2922 2925 2930 2933 2936 2939 2942 2943 2945 2945 2945 2943 2940 2939 2938 2935 2932 2930 2928 2927 2926 2923 2924 2928 2933 2935 2934 2931 2928 2925 2921 2919 2916 2914 2914 2914 2914 2913 2912 2912 2912 2911 2911 2911 2911 2912 2912 2913
2894 2901 2905 2907 2911 2916 2919 2923 2927 2931 2933 2936 2939 2940 2940 2940 2938 2936 2933 2933 2930 2929 2928 2925 2923 2921 2920 2919 2920 2923 2927 2926 2923 2920 2920 2916 2909 2905 2905 2903 2903 2903 2903 2901 2902 2901 2901 2901 2900 2900 2900 2900 2900 2902
2892 2895 2901 2903 2908 2915 2917 2922 2926 2929 2932 2934 2934 2935 2935 2934 2932 2928 2925 2925 2923 2924 2923 2921 2920 2918 2917 2917 2917 2917 2918 2916 2914 2910 2909 2906 2902 2898 2896 2895 2893 2895 2894 2891 2891 2890 2889 2886 2884 2883 2884 2885 2887 2889
2889 2892 2897 2902 2907 2913 2917 2921 2925 2927 2928 2929 2930 2930 2930 2927 2923 2921 2921 2919 2919 2919 2917 2916 2914 2913 2911 2910 2910 2909 2908 2906 2903 2901 2898 2895 2892 2890 2888 2886 2885 2884 2881 2880 2878 2875 2872 2870 2870 2870 2871 2872 2875 2879
2889 2894 2898 2903 2907 2912 2915 2919 2921 2923 2924 2924 2924 2923 2922 2918 2914 2914 2913 2912 2912 2911 2909 2908 2906 2905 2903 2902 2901 2900 2898 2897 2894 2892 2889 2886 2884 2882 2880 2877 2876 2874 2872 2869 2866 2863 2861 2860 2859 2860 2862 2864 2867 2871
2891 2895 2900 2903 2907 2910 2913 2916 2917 2917 2918 2916 2915 2913 2910 2907 2906 2904 2904 2903 2902 2899 2897 2896 2896 2896 2893 2893 2893 2891 2889 2887 2884 2881 2879 2877 2876 2875 2872 2872 2869 2865 2862 2858 2855 2853 2852 2851 2852 2853 2856 2859 2862 2866
2892 2896 2899 2902 2906 2908 2910 2910 2911 2911 2910 2908 2905 2901 2898 2897 2897 2896 2893 2892 2890 2888 2886 2884 2885 2885 2884 2884 2884 2883 2882 2879 2875 2872 2871 2871 2870 2869 2866 2863 2860 2857 2853 2849 2847 2846 2845 2845 2847 2849 2853 2856 2860 2864
2891 2895 2898 2901 2903 2905 2905 2905 2905 2903 2900 2898 2896 2893 2891 2887 2886 2886 2884 2883 2879 2878 2877 2877 2877 2877 2876 2875 2873 2872 2872 2869 2867 2867 2867 2866 2865 2862 2860 2858 2854 2850 2847 2844 2843 2841 2841 2843 2846 2849 2853 2857 2862 2867
2890 2893 2896 2899 2901 2902 2902 2901 2899 2897 2895 2893 2891 2889 2886 2882 2877 2877 2877 2875 2873 2872 2871 2870 2868 2866 2865 2864 2863 2863 2863 2862 2863 2864 2863 2861 2861 2860 2857 2853 2850 2847 2845 2844 2843 2842 2843 2846 2849 2853 2857 2861 2867 2872
2887 2890 2892 2895 2897 2899 2899 2898 2896 2893 2890 2887 2883 2880 2878 2876 2873 2873 2871 2869 2867 2864 2862 2859 2857 2856 2856 2855 2856 2857 2859 2861 2861 2861 2862 2862 2860 2858 2854 2851 2849 2848 2848 2848 2847 2848 2850 2852 2856 2859 2863 2867 2872 2877
Wind_Speed
20 21 22 26 30 36 32 25 40 36 38 31 31 28 25 21 19 17 15 14 14 14 13 14 15 15 16 17 17 16 16 19 16 15 13 13 11 12 17 21 17 15 10 19 25 21 19 15 14 19 16 14 19 20
19 21 23 23 27 32 30 26 40 38 32 34 31 29 24 21 19 16 14 14 13 13 11 14 15 15 16 16 16 17 17 12 12 12 17 11 12 11 14 10 12 15 20 20 15 19 17 8 21 28 26 22 17 26
20 21 23 24 25 26 35 30 35 43 44 38 30 27 24 22 19 16 16 14 12 11 10 11 11 13 13 14 18 18 17 17 15 17 14 13 14 13 14 17 22 23 22 24 28 29 23 24 25 26 27 22 22 23
16 19 22 24 24 28 35 29 30 41 36 34 32 29 25 23 19 16 15 13 10 7 4 3 4 8 9 12 16 16 16 18 18 19 20 23 22 18 20 22 21 25 24 26 33 36 31 20 23 28 30 24 24 20
14 16 20 23 25 30 35 31 30 42 39 36 33 29 28 24 21 19 16 12 9 6 3 3 7 12 14 13 14 15 16 19 18 20 22 24 26 26 33 33 35 29 29 25 26 23 27 34 34 25 31 27 24 24
16 16 18 24 27 29 35 28 34 41 46 36 35 31 28 24 21 19 14 11 7 4 5 7 10 13 13 14 14 13 15 18 22 23 25 26 26 23 22 37 45 38 32 28 29 28 28 33 27 31 36 25 26 27
17 17 19 24 30 31 38 22 36 43 46 39 37 34 28 26 24 19 13 10 8 6 5 6 6 5 5 7 12 15 16 19 21 23 29 30 30 25 32 43 42 37 41 36 30 31 30 26 33 30 27 36 27 31
16 18 21 22 29 31 36 27 30 44 43 42 38 32 31 29 24 19 14 9 8 9 7 3 4 6 9 10 11 10 15 18 21 24 27 28 26 26 37 45 38 34 32 33 33 30 34 27 29 29 27 30 22 31
17 20 24 21 30 31 35 31 28 46 48 42 37 36 31 26 23 18 13 11 11 11 8 8 11 8 6 7 9 10 11 17 21 26 26 25 31 28 35 35 31 27 24 23 19 27 27 27 29 28 24 25 17 31
19 23 27 26 36 32 36 36 47 48 46 42 37 33 28 26 21 16 12 10 14 15 16 18 16 13 11 11 8 9 10 12 15 20 17 27 36 33 33 34 30 30 30 30 30 27 27 27 31 26 22 30 25 17
18 23 29 27 35 32 31 42 52 48 43 41 40 33 27 25 17 13 8 6 6 6 8 5 8 10 13 16 18 8 8 6 8 12 14 15 29 27 24 24 25 30 31 27 27 29 30 29 26 24 25 19 21 23
21 20 24 33 34 35 35 49 49 48 47 44 39 28 23 19 10 8 7 7 8 6 5 4 7 6 7 7 11 10 11 7 8 10 10 7 13 16 18 18 20 22 24 25 28 29 34 34 28 24 27 24 21 23
18 20 30 32 33 37 40 45 52 45 42 39 31 24 15 13 10 9 10 9 6 5 7 5 5 7 5 4 5 8 6 8 8 7 13 14 10 18 17 17 12 7 7 11 19 28 32 38 31 31 26 26 28 27
20 16 31 36 40 38 51 55 51 46 40 32 25 22 13 9 10 18 13 6 8 9 9 7 5 6 10 6 6 6 10 8 7 6 6 14 14 18 26 26 21 17 8 4 5 10 18 26 33 37 36 31 29 28
18 24 32 35 40 48 53 50 45 40 38 23 18 11 14 13 9 9 8 6 8 13 11 10 9 13 12 8 7 9 6 7 6 9 4 8 12 12 15 20 24 24 23 11 8 7 10 14 18 22 23 26 26 26
20 25 24 34 51 52 51 46 44 42 36 17 14 13 14 15 14 12 9 7 7 10 10 7 5 4 11 8 10 11 10 7 5 2 3 8 10 14 16 18 21 19 21 19 15 6 7 9 13 17 19 22 23 23
39 34 35 37 45 52 49 47 45 44 28 16 20 24 11 13 11 9 6 9 13 10 9 7 7 7 5 10 15 13 20 17 17 6 10 14 12 11 16 16 20 19 20 19 19 14 12 12 13 14 17 19 20 19
34 27 32 42 49 54 53 49 45 26 27 33 25 22 25 17 12 11 10 10 15 15 13 14 12 14 10 8 6 7 9 10 10 11 11 13 16 18 18 19 20 22 21 18 19 18 14 15 17 15 18 18 22 23
40 30 30 39 41 50 52 49 42 22 27 33 31 24 17 15 11 10 12 13 12 16 18 20 13 20 23 21 17 13 13 16 19 18 15 13 17 20 21 21 22 22 25 21 18 18 18 15 16 17 18 21 22 26
32 20 29 39 47 50 35 34 45 20 19 26 29 25 22 19 14 14 15 17 18 20 25 31 33 29 25 17 16 15 13 17 20 23 22 20 20 24 25 25 24 25 24 22 21 19 17 17 16 17 19 21 24 23
25 37 46 48 48 44 26 20 35 29 14 14 17 15 16 15 15 15 15 16 24 31 35 34 34 29 29 28 23 23 19 19 22 25 28 28 25 26 25 26 27 25 26 26 25 23 20 18 17 19 19 21 22 24
42 43 45 49 47 38 20 17 25 23 20 23 14 12 12 13 17 17 19 24 31 33 33 35 35 36 36 34 29 24 23 22 23 25 28 32 36 36 34 31 30 30 29 28 28 29 26 23 19 18 21 23 25 26
35 44 48 45 28 27 14 20 16 25 17 14 14 16 17 18 19 19 23 28 32 27 24 21 16 20 28 30 33 32 29 28 30 33 38 40 43 35 35 33 31 32 31 29 31 30 30 29 27 26 21 24 27 26
34 49 35 32 20 20 18 19 20 18 21 17 16 15 16 17 19 23 29 32 27 19 17 19 24 26 23 22 30 34 32 33 37 38 42 44 41 36 29 28 28 29 29 30 30 29 30 31 30 28 27 29 27 28
35 25 22 20 18 23 20 21 24 22 17 13 14 13 15 19 21 27 33 31 16 11 9 9 13 15 13 7 6 10 16 24 25 30 29 32 31 23 21 25 26 26 27 28 28 30 31 32 34 32 32 32 28 30
20 9 19 22 26 21 19 23 16 21 17 16 15 16 19 21 23 24 36 23 12 7 8 9 9 11 14 14 14 15 14 19 25 30 29 30 26 27 24 22 20 19 22 28 29 31 36 35 34 33 30 26 26 28
17 9 25 26 22 25 21 20 17 15 16 17 19 20 21 18 22 28 21 7 12 17 19 20 21 20 19 18 18 17 20 25 29 28 31 34 30 29 27 23 22 21 24 27 32 35 37 35 30 25 22 22 24 26
15 10 17 22 23 19 15 17 18 18 19 22 25 26 20 24 33 33 26 21 18 19 23 26 27 26 26 23 22 23 26 30 32 34 34 30 26 23 24 24 23 25 29 32 35 34 28 24 22 20 18 21 24 26
15 17 14 12 13 13 13 14 14 15 16 21 25 30 36 36 31 26 19 20 25 28 29 28 28 28 29 26 24 27 32 33 37 36 31 27 21 20 19 22 24 27 30 32 28 23 21 19 18 16 18 20 23 25
15 15 16 15 12 11 10 13 17 20 24 28 32 34 34 31 25 23 26 28 28 29 30 30 26 27 27 26 28 31 31 36 36 26 18 16 14 17 19 19 25 28 27 21 18 16 14 14 15 17 20 23 26 30
18 16 14 14 11 6 6 12 17 23 26 27 27 28 30 32 27 22 23 22 22 22 22 21 23 25 28 31 34 36 34 25 18 16 13 15 15 12 18 23 26 20 15 13 10 6 6 9 14 19 22 27 31 34
21 20 15 13 15 16 14 16 16 15 14 18 21 23 27 31 28 13 8 13 16 18 22 26 30 34 35 34 32 24 15 14 11 11 8 7 10 15 20 19 12 8 7 5 3 3 7 12 17 22 27 29 31 32
21 19 18 10 11 15 17 17 19 23 22 23 22 20 18 18 18 17 16 18 21 23 24 24 23 19 16 13 10 12 12 10 6 1 4 6 11 17 17 8 6 5 5 7 8 10 13 17 21 24 27 29 31 33
Wind_Direction
223 227 226 224 225 227 214 228 206 209 201 205 206 206 204 206 206 206 206 208 212 219 222 229 234 236 239 237 239 244 248 243 239 232 225 227 234 234 239 239 241 248 254 239 234 231 250 235 248 236 262 256 271 280
228 224 226 222 216 221 208 217 198 202 199 202 203 200 199 201 204 203 205 205 211 214 221 227 233 234 235 240 239 237 239 241 222 215 218 215 226 234 242 243 232 247 243 244 242 239 240 233 241 247 253 252 257 273
230 226 226 223 213 207 210 203 203 201 205 201 206 196 194 196 196 196 199 196 195 201 211 225 234 242 244 243 243 245 245 245 236 236 230 232 230 226 238 254 255 245 238 249 252 243 248 238 239 250 248 247 249 251
228 224 222 219 209 199 205 200 207 191 188 199 197 193 192 195 194 191 188 176 173 166 177 209 240 252 258 253 252 250 248 248 245 241 240 238 241 249 241 242 242 250 256 254 258 256 245 246 237 235 236 233 239 233
226 221 217 212 203 196 196 199 205 184 194 193 190 187 191 193 190 183 178 172 173 184 146 297 294 286 272 265 253 249 245 245 250 251 252 255 256 257 257 256 248 243 251 257 264 271 257 245 244 241 230 236 240 246
226 221 211 202 195 193 189 190 193 184 182 193 187 186 188 191 184 183 181 186 192 218 273 317 311 282 278 271 263 259 247 242 242 247 253 257 258 266 264 262 257 250 249 259 271 278 280 255 242 245 242 234 236 225
223 212 204 195 191 190 192 184 196 191 182 186 181 184 181 185 186 184 188 199 213 239 291 323 320 319 306 281 265 254 250 250 248 248 250 257 260 260 264 262 260 258 254 258 265 269 274 270 271 257 243 232 244 246
211 202 191 193 192 186 195 183 180 178 177 178 175 176 183 186 184 187 199 216 234 251 269 275 301 293 289 277 275 270 243 241 245 253 256 256 262 255 258 263 266 266 265 258 253 257 269 283 281 275 251 228 229 237
196 190 180 179 184 182 183 186 194 178 179 170 172 180 182 185 188 191 203 223 244 252 265 274 286 298 282 271 263 265 253 246 249 255 258 257 256 246 258 268 276 277 275 260 266 257 254 265 283 286 266 256 219 220
186 184 182 178 184 181 171 192 171 177 178 175 175 177 181 186 191 200 214 233 254 263 266 274 284 273 274 263 267 259 259 252 255 270 271 258 269 276 272 274 281 278 271 261 253 242 232 238 263 253 258 266 243 219
182 183 186 184 185 183 176 175 176 178 177 174 180 181 183 184 189 205 222 222 243 252 266 267 274 275 268 244 237 245 242 250 253 274 247 261 273 290 285 280 274 272 268 258 250 242 226 229 245 249 243 246 261 256
179 189 195 185 180 183 190 176 180 183 181 180 181 174 174 177 190 203 210 212 231 243 235 270 296 275 263 268 241 233 250 245 245 244 249 252 275 280 284 281 275 272 275 267 247 235 226 226 235 249 238 246 244 257
194 185 189 191 185 173 190 194 188 185 181 176 172 171 174 191 197 202 198 211 182 271 249 265 294 230 224 241 218 193 228 240 255 250 256 257 320 313 331 338 327 274 241 266 257 241 234 227 230 241 233 243 240 242
191 184 175 176 182 186 181 180 182 181 180 173 178 179 190 193 211 222 233 221 255 244 225 249 272 239 233 230 200 228 233 263 242 235 276 321 325 322 325 336 338 351 356 119 214 251 247 241 234 233 235 244 239 245
176 152 172 182 181 181 179 180 181 177 177 178 178 192 209 199 176 169 188 223 250 222 230 250 265 269 235 222 216 226 227 228 238 238 260 8 1 347 335 330 337 351 357 5 180 206 239 238 228 232 238 241 243 246
152 170 174 173 174 175 178 178 178 179 178 181 193 203 202 200 214 230 243 260 235 212 229 239 249 224 220 218 218 216 228 235 183 193 356 353 355 339 329 327 333 343 345 351 340 230 227 237 237 238 244 243 244 245
163 173 176 176 178 180 180 182 180 182 186 191 205 206 191 195 191 196 224 236 225 223 224 225 211 225 219 240 237 232 233 244 239 249 314 310 313 315 305 315 317 326 331 337 348 327 292 267 251 249 254 254 248 242
171 162 173 181 185 183 182 184 180 186 195 205 211 215 218 224 241 254 268 266 232 224 226 229 243 234 233 231 259 283 298 277 289 294 295 287 296 302 302 306 310 317 320 326 340 340 319 283 265 266 255 254 246 242
179 183 186 187 190 188 179 183 189 194 208 210 218 217 217 225 236 266 272 263 238 235 240 245 241 251 255 268 267 280 268 258 267 268 274 276 286 293 301 302 302 301 308 315 314 328 330 303 278 259 248 255 254 241
186 184 188 185 188 187 181 194 198 192 194 210 220 224 229 239 250 262 258 254 245 244 246 248 250 255 267 260 270 257 270 265 269 275 283 287 287 285 284 286 292 296 301 306 308 312 320 317 297 268 257 255 253 251
179 185 187 189 190 194 194 198 200 206 194 193 211 214 221 229 241 251 261 264 253 260 268 278 277 271 260 262 256 260 268 264 274 284 295 298 295 290 287 288 291 292 295 301 300 303 300 304 309 294 278 265 262 257
181 185 190 192 191 190 187 190 199 201 215 214 195 205 230 246 254 263 276 275 279 289 291 288 280 274 269 265 262 254 255 265 275 285 293 300 302 297 290 287 285 285 287 293 293 294 295 293 289 298 285 271 265 267
180 185 189 189 186 196 194 208 202 211 219 227 223 230 244 259 271 282 286 293 302 312 299 287 278 277 274 266 252 244 246 261 275 290 296 298 301 295 293 287 283 280 282 285 284 286 289 288 285 283 289 282 262 267
189 184 177 183 190 196 195 190 200 201 210 212 224 240 259 273 287 295 300 305 319 307 290 273 269 267 274 268 251 238 243 261 278 284 287 296 299 298 284 279 274 271 274 274 274 277 281 285 286 284 284 292 271 258
170 175 187 181 190 196 196 199 204 209 209 216 231 250 275 291 296 299 304 317 321 268 296 304 291 276 275 272 240 243 261 272 275 281 294 302 300 287 275 276 273 269 271 272 274 276 279 286 289 289 286 285 267 246
173 166 191 198 196 194 198 211 213 215 224 236 255 270 288 297 293 292 305 320 300 233 284 313 312 286 274 260 262 278 280 271 281 292 300 303 291 277 283 284 280 275 274 275 278 282 287 290 292 290 280 267 252 242
172 165 189 196 199 211 207 209 215 227 243 258 273 282 287 276 283 290 309 231 290 300 294 293 293 297 295 278 273 273 273 282 291 301 301 303 291 278 282 285 283 285 289 289 294 297 298 294 285 274 263 250 239 234
177 176 185 195 204 211 214 226 231 243 254 267 274 272 272 274 285 295 291 279 284 285 280 280 277 285 287 277 271 276 280 284 288 297 302 298 290 278 275 280 287 294 300 301 298 297 290 281 274 265 248 229 222 220
170 176 175 163 181 201 220 239 255 268 281 282 284 288 291 292 292 284 280 280 280 281 281 277 275 277 272 271 272 277 283 290 298 299 297 294 281 272 277 281 287 297 302 302 297 290 283 273 260 244 224 211 207 201
175 175 185 200 215 232 263 275 280 285 288 286 285 287 284 288 295 290 285 287 287 285 278 272 267 265 267 270 276 280 287 295 294 289 280 274 268 276 279 298 303 307 306 300 297 291 276 256 238 217 203 196 188 180
194 205 205 207 206 226 279 307 306 296 288 284 281 281 286 292 292 290 291 294 285 280 279 274 266 269 273 278 282 290 295 283 266 259 260 261 271 308 310 307 310 311 310 310 307 287 235 210 200 193 185 178 173 167
218 225 237 245 257 255 259 292 296 302 299 291 286 286 290 291 297 298 307 292 284 282 280 279 276 274 275 276 278 279 252 234 233 242 250 322 325 307 313 321 325 332 336 353 34 92 142 163 171 168 165 164 164 164
192 195 205 235 278 250 265 279 288 302 305 307 296 287 287 290 295 303 297 296 294 293 291 289 284 279 271 258 227 201 191 199 204 39 330 301 310 318 336 356 28 42 62 84 99 114 137 153 160 161 161 161 162 162